TimeCST,TemperatureF,Dew PointF,Humidity,Sea Level PressureIn,VisibilityMPH,Wind Direction,Wind SpeedMPH,Gust SpeedMPH,PrecipitationIn,Events,Conditions,WindDirDegrees,DateUTC
12:53 AM,33.1,28.9,85,29.64,10.0,Calm,Calm,-,N/A,,Clear,0,2013-03-04 06:53:00
1:53 AM,32.0,28.9,88,29.63,10.0,Calm,Calm,-,N/A,,Clear,0,2013-03-04 07:53:00
2:53 AM,33.1,28.9,85,29.62,10.0,Calm,Calm,-,N/A,,Clear,0,2013-03-04 08:53:00
3:53 AM,30.9,28.0,89,29.65,10.0,NW,5.8,-,N/A,,Clear,320,2013-03-04 09:53:00
4:53 AM,30.0,27.0,88,29.65,10.0,WNW,3.5,-,N/A,,Clear,300,2013-03-04 10:53:00
5:53 AM,30.9,27.0,85,29.64,10.0,Calm,Calm,-,N/A,,Clear,0,2013-03-04 11:53:00
6:53 AM,30.9,27.0,85,29.65,10.0,NNW,3.5,-,0.00,,Clear,340,2013-03-04 12:53:00
7:53 AM,33.1,28.9,85,29.70,7.0,WNW,8.1,-,N/A,,Clear,300,2013-03-04 13:53:00
8:53 AM,36.0,30.9,82,29.72,6.0,NW,9.2,-,N/A,,Haze,310,2013-03-04 14:53:00
9:53 AM,42.1,35.1,76,29.73,10.0,NNW,20.7,29.9,N/A,,Overcast,340,2013-03-04 15:53:00
10:53 AM,43.0,36.0,76,29.75,10.0,North,24.2,33.4,N/A,,Overcast,350,2013-03-04 16:53:00
11:53 AM,43.0,35.1,74,29.76,10.0,NNW,26.5,-,N/A,,Overcast,340,2013-03-04 17:53:00
12:53 PM,44.1,35.1,71,29.75,10.0,North,25.3,29.9,N/A,,Overcast,350,2013-03-04 18:53:00
1:53 PM,45.0,35.1,68,29.75,10.0,North,21.9,-,N/A,,Overcast,360,2013-03-04 19:53:00
2:53 PM,45.0,35.1,68,29.76,10.0,North,16.1,-,N/A,,Mostly Cloudy,350,2013-03-04 20:53:00
3:53 PM,44.1,35.1,71,29.79,10.0,North,17.3,-,N/A,,Overcast,350,2013-03-04 21:53:00
4:53 PM,43.0,34.0,71,29.86,9.0,NNW,26.5,33.4,N/A,,Overcast,340,2013-03-04 22:53:00
5:46 PM,42.8,33.8,70,29.87,10.0,North,25.3,31.1,N/A,,Overcast,360,2013-03-04 23:46:00
5:53 PM,42.1,33.1,70,29.90,10.0,North,21.9,32.2,N/A,,Overcast,360,2013-03-04 23:53:00
6:53 PM,41.0,33.1,73,29.96,10.0,North,15.0,-,N/A,,Overcast,350,2013-03-05 00:53:00
7:53 PM,42.1,34.0,73,30.01,10.0,North,19.6,24.2,N/A,,Overcast,350,2013-03-05 01:53:00
8:53 PM,37.9,34.0,86,30.07,10.0,North,19.6,-,0.02,Snow,Light Snow,350,2013-03-05 02:53:00
9:22 PM,37.4,35.6,93,30.05,10.0,North,9.2,-,0.01,Rain,Light Rain,360,2013-03-05 03:22:00
9:53 PM,37.9,35.1,89,30.08,10.0,NNW,8.1,-,0.01,,Overcast,340,2013-03-05 03:53:00
10:47 PM,24.8,14.0,64,30.21,10.0,NW,5.8,-,N/A,,Clear,310,2013-03-05 04:47:00
10:53 PM,37.9,32.0,79,30.07,10.0,NW,16.1,21.9,N/A,,Mostly Cloudy,320,2013-03-05 04:53:00
11:53 PM,37.0,25.0,62,30.10,9.0,NW,24.2,29.9,0.00,Snow,Light Snow,310,2013-03-05 05:53:00